284P/McNaught (2021)

Japanese version
Home page
Updated on September 18, 2021

---------------------------------------------------------------------

* Profile

* Pictures

* Orbital Elements

Epoch 2021 July 5.0 TT = JDT 2459400.5
T 2021 Sept. 12.78717 TT                                Rudenko
q   2.2956815            (2000.0)            P               Q
n   0.13960316     Peri.  202.47316     +0.96855777     +0.21790767
a   3.6802096      Node   144.26323     -0.18532464     +0.95386574
e   0.3762090      Incl.   11.86133     -0.16598380     +0.20653428
P   7.06
From 1975 observations 2007 Apr. 17-2021 June 26, mean residual 0".7.
     Nongravitational parameters A1 = +0.05, A2 = +0.0069.

* Finding Charts

* Magnitudes Graph

        m1 = 7.5 + 5 log d + 20.0 log r

---------------------------------------------------------------------

The orbital elements are published on M.P.E.C. 2021-N06.
The charts are made with StellaNavigator Ver.10 (AstroArts).
The magnitudes graphs are made with Comet for Windows.

---------------------------------------------------------------------

Copyright(C) Seiichi Yoshida (comet@aerith.net). All rights reserved.